Location: Zlin
(49.2330°N, 17.6670°E)
Time: 00:52:35
(UTC+02:00)

ISS - Visible Passes

Search period start: 19 April 2026 00:00
Search period end: 29 April 2026 00:00
Orbit: 416 x 425 km, 51.6° (Epoch: 18 April)

Date Brightness Start Highest point End Pass type
(mag) Time Alt. Az. Time Alt. Az. Time Alt. Az.
19 Apr -1.1 04:40:54 10° SSE 04:42:36 13° SE 04:44:17 10° ESE visible
21 Apr -2.3 04:41:44 12° SSW 04:44:27 29° SE 04:47:25 10° E visible
22 Apr -1.9 03:56:14 17° SSE 03:57:16 20° SE 03:59:50 10° E visible
23 Apr -1.2 03:10:40 13° SE 03:10:40 13° SE 03:11:51 10° ESE visible
23 Apr -3.5 04:43:38 14° SW 04:46:25 61° SSE 04:49:46 10° ENE visible
24 Apr -3.1 03:58:00 30° SSW 03:59:07 42° SSE 04:02:21 10° ENE visible
25 Apr -2.4 03:12:18 28° SE 03:12:18 28° SE 03:14:50 10° E visible
25 Apr -3.7 04:45:15 11° WSW 04:48:28 77° NNW 04:51:52 10° ENE visible
26 Apr -1.1 02:26:34 13° E 02:26:34 13° E 02:27:10 10° E visible
26 Apr -3.8 03:59:30 29° WSW 04:01:04 83° SSE 04:04:28 10° ENE visible
27 Apr -3.7 03:13:43 61° SSE 03:13:43 61° SSE 03:17:02 10° ENE visible
27 Apr -3.2 04:47:14 10° W 04:50:34 57° N 04:53:55 10° ENE visible
28 Apr -1.9 02:27:52 25° E 02:27:52 25° E 02:29:33 10° ENE visible
28 Apr -3.4 04:00:49 19° W 04:03:05 64° N 04:06:28 10° ENE visible
